User: anonymous   Login
Location: Dehesa de la Cepeda
(40.6574°N, 4.3013°W)
Time: 03:25:14
(UTC+00:00)
Language:

Transit 4A - Orbit

View from above orbital plane
View from above orbital plane
View from above satellite
View from above satellite

Ground track
Ground track

The orbit data is extracted from the following two-line orbital elements,

1 00116U 61015A   21206.89752922 -.00000039  00000-0  28667-4 0  9992
2 00116  66.8107 301.9334 0068598  85.9166 274.9750 13.91793770 47947
Epoch (UTC): 25 July 2021 21:32:26
Eccentricity: 0.0068598
inclination: 66.8107°
perigee height: 872 km
apogee height: 972 km
right ascension of ascending node: 301.9334°
argument of perigee: 85.9166°
revolutions per day: 13.91793770
mean anomaly at epoch: 274.9750°
orbit number at epoch: 4794

The dashed part of the orbit path shows where the satellite is in the earth's shadow,  

DLR